STARLINK-3200 (49753 NORAD) Tracking and Keplerian Element Data

This shows tracking and keplerian element data for the satellite.

Feedback or suggestion? Click here.




ElementValue
Catalog49753
NameSTARLINK-3200
Epoch Orbit130
Epoch Day140.58334491
Epoch Year2022
RAAN265.0633
Inclination53.2196
Eccentricity0.0002144
Argument of Perigee33.7946
Mean Anonmoly222.6721
Mean Motion15.08868891
Decay Rate-0.00050382
L11 49753U 21115AF 22140.58334491 -.00050382 00000+0 -31671-2 0 9993
L22 49753 53.2196 265.0633 0002144 33.7946 222.6721 15.08868891 1304

Live tracking and technical data element details for STARLINK-3200 (NORAD 49753). STARLINK-3200 can be tracked NOW for your location showing map with azimuth and elevation plus other details from your city location.

Track the satellite on the map from your city or location and see movement details for azimuth, elevation, latitude, longitude, range, height, and movement on the map or in text.







IsCatalogInMostPopularTable: catalog: 49753, numindb: 22
Update: records affected: 1



GetName: 49753 STARLINK-3200

Hit Count: updated at: Mon, 23 May 2022 21:03:53 GMT